Regional Weather Roundup
Issued by NWS

Home | Current Version | Previous Version | Text Only | Print | Product List | Glossary Off
Versions: 1 2 3 4 5 6 7 8 9 10 11 12 13 14 15 16 17 18 19 20 21 22 23 24 25 26 27 28 29 30 31 32 33 34 35 36 37 38 39 40 41 42 43 44 45 46 47 48 49 50

000
ASUS46 KLOX 050213
RWRCA

SOUTHERN CALIFORNIA WEATHER ROUNDUP
NATIONAL WEATHER SERVICE OXNARD CALIFORNIA
700 PM PDT FRI SEP 04 2015

NOTE: "FAIR" INDICATES FEW OR NO CLOUDS BELOW 12,000 FEET WITH NO
SIGNIFICANT WEATHER AND/OR OBSTRUCTIONS TO VISIBILITY.

  -  STATIONS PRECEEDED BY AN ASTERISK (*) ARE NOT NWS OR FAA
     STATIONS AND ARE NOT SUBJECT TO NWS AND FAA QUALITY CONTROL.

CAZ041-042-087-050300-
LA AND ORANGE COUNTY COASTAL AREAS


CITY           SKY/WX    TMP DP  RH WIND       PRES   REMARKS
L.A. DOWNTOWN  CLEAR     72  56  57 CALM      29.83S
L.A. AIRPORT   PTCLDY    70  59  68 W9        29.84S
LONG BEACH     CLEAR     74  57  55 S7        29.83S

CITY           SKY/WX    TMP DP  RH WIND       PRES   REMARKS
AVALON           N/A     70 N/A N/A MISG        N/A
FULLERTON      CLEAR     74  58  57 S7        29.82S
*GETTY CENTER    N/A     66  54  63 SW6G12      N/A
HAWTHORNE      CLEAR     72  58  61 SW7       29.84S
*LEO CARRILLO    N/A     69  59  69 SW10G22     N/A
*LOS ALAMITOS  CLEAR     71  60  67 S7        29.83S
*REDONDO BEACH   N/A     69  60  71 CALM      29.84F
SANTA ANA      CLEAR     70  57  63 S8        29.84R
STA MONICA APT CLEAR     71  56  58 SW7       29.84S
TORRANCE       CLEAR     72  59  64 W10       29.84S
*UCLA            N/A     70  54  56 SW6       29.81S

$$

CAZ547-548-048-050300-
LA COUNTY VALLEYS AND INLAND EMPIRE


CITY           SKY/WX    TMP DP  RH WIND       PRES   REMARKS
BURBANK        CLEAR     74  54  49 S7        29.83S
VAN NUYS       CLEAR     73  53  49 SE9       29.83R

CITY           SKY/WX    TMP DP  RH WIND       PRES   REMARKS
CORONA AIRPORT CLEAR     73  56  55 W12       29.83R
*CHATSWORTH      N/A     71  57  61 W3        29.83R
CHINO          CLEAR     74  55  51 SW15      29.84R
*CLAREMONT       N/A     70  53  54 SW7         N/A
MARCH AFB      CLEAR     73  55  52 NW13      29.84R
*NORTHRIDGE      N/A     73  54  49 W3          N/A
ONTARIO        CLEAR     73  54  51 W10       29.83R
*PASADENA        N/A     72  59  64 CALM        N/A
POMONA         CLEAR     72  54  53 SW9       29.87R
RIVERSIDE      CLEAR     75  55  49 W8        29.83R
SAN BERNARDINO NOT AVBL
*SAN GABRIEL     N/A     74  58  59 SW7       29.89S
*SAN RAFAEL HI   N/A     69  49  48 E7          N/A
*SAUGUS          N/A     78  56  45 S14         N/A
*WHITEMAN AP   NOT AVBL
*WHITTIER HILL   N/A     70  56  62 S7          N/A
*WOODLAND HILL   N/A     73  54  49 SW3         N/A

$$

CAZ054-055-050300-
LA AND SAN BERNARDINO COUNTY MOUNTAINS


CITY           SKY/WX    TMP DP  RH WIND       PRES   REMARKS
*ACTON           N/A     73  50  44 SW10G25     N/A
*BIG BEAR AIRP CLEAR     59  36  41 SW5       30.07F
*BIG PINES       N/A     57  33  40 CALM        N/A
SANDBERG       CLEAR     63  51  65 S10       29.97R

$$

CAZ028-029-059-060-099-050300-
ANTELOPE VALLEY AND SURROUNDING AREAS


CITY           SKY/WX    TMP DP  RH WIND       PRES   REMARKS
LANCASTER      CLEAR     72  52  49 SW23G30   29.84R
PALMDALE       CLEAR     72  48  42 W17       29.84R
*POPPY PARK      N/A     68  52  56 SW20        N/A

CITY           SKY/WX    TMP DP  RH WIND       PRES   REMARKS
29 PALMS       CLEAR     86  36  16 S16       29.82S
BARSTOW/DAGGET CLEAR     86  20   9 SW18      29.74S
BISHOP         CLEAR     80  15   8 W20G25    29.74R
CHINA LAKE     CLEAR     83  26  12 SW15G23   29.73R
EDWARDS AFB    CLEAR     76  45  32 SW23G31   29.79R
NEEDLES        MOCLDY    97  43  15 SW9G23    29.68S HX  93
VICTORVILLE    CLEAR     75  39  27 S16       29.85R

$$

CAZ039-040-050300-
VENTURA AND SANTA BARBARA COUNTY COAST


CITY           SKY/WX    TMP DP  RH WIND       PRES   REMARKS
CAMARILLO      CLEAR     71  57  61 W13       29.84S
NWS OXNARD       N/A     69  58  68 CALM      29.84S
OXNARD AIRPORT CLEAR     69  58  67 W13       29.84S
*POINT MUGU    PTCLDY    71  59  65 W10       29.85S
SBA APT/GOLETA CLEAR     72  56  57 W7        29.83S
*SANTA BARBARA   N/A     74  55  51 CALM      29.91S
*VENTURA         N/A     69  57  65 SW7       29.44S

$$

CAZ044-045-050300-
VENTURA COUNTY VALLEYS


CITY           SKY/WX    TMP DP  RH WIND       PRES   REMARKS
*SIMI VALLEY     N/A     68  58  70 CALM      29.80S
*OJAI            N/A     69  58  68 CALM      29.79S
*FILLMORE        N/A     70  58  64 W14       29.75S

$$

CAZ053-050300-
VENTURA COUNTY MOUNTAINS


CITY           SKY/WX    TMP DP  RH WIND       PRES   REMARKS
*LOCKWOOD VLY    N/A     61  43  51 MISG        N/A
*ROSE VALLEY     N/A     63  57  82 MISG        N/A

$$

CAZ034-035-036-050300-
CENTRAL COAST AND SANTA YNEZ VALLEY


CITY           SKY/WX    TMP DP  RH WIND       PRES   REMARKS
SAN LUIS OBISP CLEAR     63  53  70 NW13      29.87S
SANTA MARIA    CLEAR     64  54  69 NW15      29.88F

CITY           SKY/WX    TMP DP  RH WIND       PRES   REMARKS
*CAL POLY SLO    N/A     63  55  77 SW3G9       N/A
*LOMPOC        CLEAR     64  52  63 W8        29.89F
*PISMO BEACH     N/A     67  55  66 CALM      29.86S
*SANTA YNEZ    FAIR      64  50  59 W13       29.87S

$$

CAZ037-038-051-050300-
SAN LUIS OBISPO COUNTY INTERIOR AND CUYAMA VALLEY


CITY           SKY/WX    TMP DP  RH WIND       PRES   REMARKS
*CUYAMA          N/A     70  48  46 NW8       29.76S
PASO ROBLES    CLEAR     72  47  40 W10       29.83S

$$

CAZ032-033-061-050300-
SOUTHERN DESERTS


CITY           SKY/WX    TMP DP  RH WIND       PRES   REMARKS
BLYTHE         CLEAR     99  51  19 S14       29.66S HX  96
IMPERIAL       PTCLDY    94  52  24 W14       29.64R HX  91
PALM SPRINGS   CLEAR     91  44  19 NW16      29.70S
THERMAL        CLEAR     94  46  19 NW12      29.63R HX  90

$$

ELSEWHERE ACROSS THE WESTERN UNITED STATES AND MEXICO


CITY           SKY/WX    TMP DP  RH WIND       PRES   REMARKS
DEATH VALLEY,    N/A     98  30   9 SE7         N/A  HX  92
DENVER, CO     CLOUDY    75  45  34 NW5       29.97S
GRAND CANYON,  PTCLDY    67  43  41 SW12      30.10R
HONOLULU, HI   LGT RAIN  84  75  74 S6        29.80S HX  92
KAHULUI, MAUI  MOSUNNY   88  72  58 NE20      29.81S HX  94
LAKE TAHOE, CA CLEAR     57  16  20 S7        29.96R
LAS VEGAS, NV  PTCLDY    92  31  11 S12G23    29.66F
MAMMOTH LAKES, FAIR      61  23  23 W14       29.99F
MEXICO CITY, M CLOUDY    63  55  77 SW3       30.28R
PHOENIX, AZ    CLOUDY    92  58  31 S8        29.78R HX  91
PORTLAND, OR   PTCLDY    64  46  52 W9        29.95S
RENO, NV       PTCLDY    67  15  13 W8G20     29.86R
SALT LAKE CITY MOCLDY    83  33  16 S23G31    29.71S
SAN DIEGO, CA  PTCLDY    71  58  63 NW6       29.85F
SAN FRANCISCO, MOCLDY    61  51  70 W30G36    29.88S
SAN JOSE, CA   MOCLDY    65  47  52 W9        29.89R
SEATTLE, WA    MOCLDY    61  48  62 NE8       29.99S
TIJUANA, MEX   PTCLDY    68  55  64 W9        29.87S

$$

STATION/POSITION TIME  TEMP    WIND        PRES    VSBY  WAVE
                       AIR SEA DIR/SP/G                  HT/PER
                 (UTC) (F)     (DEG/KT/KT) (MB)    (MI)  (FT/S)
POINT ARGUELLO B NOT AVBL
WEST SANTA BARBA 0150   63 65  320/ 21/ 27 1010.2F         7/11
POINT CONCEPTION NOT AVBL
EAST SANTA BARBA 0100   67 70  280/ 16/ 17 1010.8F
SANTA MONICA BAY 0150   69 72  280/ 12/ 14 1010.4S         3/12


USA.gov is the U.S. government's official web portal to all federal, state and local government web resources and services.